OBJECT TA

Last updated on Mon Jan 24 2022 00:02:05 GMT+0000 (Coordinated Universal Time)

1 51279U 98067TA 22023.43394828 .00071379 00000+0 12352-2 0 9995 2 51279 51.6450 333.4270 0005879 52.0546 41.4399 15.50264108 787

Satellite not in orbit